Time,TemperatureF,DewpointF,PressureIn,WindDirection,WindDirectionDegrees,WindSpeedMPH,WindSpeedGustMPH,Humidity,HourlyPrecipIn,Conditions,Clouds,dailyrainin,SoftwareType,DateUTC
2013-06-05 00:01:00,56.9,42.3,29.99,North,0,0.0,0.0,58,0.00,,,0.00,WUHU216HW,2013-06-05 04:01:00,
2013-06-05 00:02:00,56.7,42.1,29.99,North,0,0.0,0.0,58,0.00,,,0.00,WUHU216HW,2013-06-05 04:02:00,
2013-06-05 00:03:00,56.7,42.1,29.99,North,0,0.0,0.0,58,0.00,,,0.00,WUHU216HW,2013-06-05 04:03:00,
2013-06-05 00:08:00,56.5,42.0,29.98,North,0,0.0,0.0,58,0.00,,,0.00,WUHU216HW,2013-06-05 04:08:00,
2013-06-05 00:13:00,56.2,41.6,29.98,North,0,0.0,0.0,58,0.00,,,0.00,WUHU216HW,2013-06-05 04:13:00,
2013-06-05 00:18:00,56.2,41.6,29.98,North,0,0.0,0.0,58,0.00,,,0.00,WUHU216HW,2013-06-05 04:18:00,
2013-06-05 00:23:00,56.0,41.4,29.98,North,0,0.0,0.0,58,0.00,,,0.00,WUHU216HW,2013-06-05 04:23:00,
2013-06-05 00:28:00,56.2,41.6,29.98,North,0,0.0,0.0,58,0.00,,,0.00,WUHU216HW,2013-06-05 04:28:00,
2013-06-05 00:33:00,56.3,42.2,29.98,North,0,0.0,0.0,59,0.00,,,0.00,WUHU216HW,2013-06-05 04:33:00,
2013-06-05 00:38:00,57.1,42.5,29.98,North,0,0.0,0.0,58,0.00,,,0.00,WUHU216HW,2013-06-05 04:38:00,
2013-06-05 00:43:00,57.4,41.9,29.98,North,0,0.0,0.0,56,0.00,,,0.00,WUHU216HW,2013-06-05 04:43:00,
2013-06-05 00:48:00,57.6,41.6,29.98,North,0,0.0,0.0,55,0.00,,,0.00,WUHU216HW,2013-06-05 04:48:00,
2013-06-05 00:53:00,57.8,42.2,29.98,North,0,0.0,0.0,56,0.00,,,0.00,WUHU216HW,2013-06-05 04:53:00,
2013-06-05 00:59:00,57.6,41.0,29.98,North,0,0.0,0.0,54,0.00,,,0.00,WUHU216HW,2013-06-05 04:59:00,
2013-06-05 01:04:00,57.1,41.0,29.98,North,0,0.0,0.0,55,0.00,,,0.00,WUHU216HW,2013-06-05 05:04:00,
2013-06-05 01:09:00,56.3,41.2,29.98,North,0,0.0,0.0,57,0.00,,,0.00,WUHU216HW,2013-06-05 05:09:00,
2013-06-05 01:14:00,55.4,42.2,29.98,North,0,0.0,0.0,61,0.00,,,0.00,WUHU216HW,2013-06-05 05:14:00,
2013-06-05 01:19:00,54.9,42.1,29.98,North,0,0.0,0.0,62,0.00,,,0.00,WUHU216HW,2013-06-05 05:19:00,
2013-06-05 01:24:00,54.7,41.5,29.98,North,0,0.0,0.0,61,0.00,,,0.00,WUHU216HW,2013-06-05 05:24:00,
2013-06-05 01:29:00,54.9,41.7,29.98,North,0,0.0,0.0,61,0.00,,,0.00,WUHU216HW,2013-06-05 05:29:00,
2013-06-05 01:34:00,54.7,41.1,29.98,North,0,0.0,0.0,60,0.00,,,0.00,WUHU216HW,2013-06-05 05:34:00,
2013-06-05 01:39:00,54.5,41.3,29.98,North,0,0.0,0.0,61,0.00,,,0.00,WUHU216HW,2013-06-05 05:39:00,
2013-06-05 01:44:00,54.0,41.2,29.98,North,0,0.0,0.0,62,0.00,,,0.00,WUHU216HW,2013-06-05 05:44:00,
2013-06-05 01:49:00,53.8,41.5,29.98,North,0,0.0,0.0,63,0.00,,,0.00,WUHU216HW,2013-06-05 05:49:00,
2013-06-05 01:54:00,54.0,41.7,29.98,North,0,0.0,0.0,63,0.00,,,0.00,WUHU216HW,2013-06-05 05:54:00,
2013-06-05 01:59:00,54.4,41.6,29.98,North,0,0.0,0.0,62,0.00,,,0.00,WUHU216HW,2013-06-05 05:59:00,
2013-06-05 02:05:00,54.7,41.5,29.98,North,0,0.0,0.0,61,0.00,,,0.00,WUHU216HW,2013-06-05 06:05:00,
2013-06-05 02:10:00,54.7,41.5,29.98,North,0,0.0,0.0,61,0.00,,,0.00,WUHU216HW,2013-06-05 06:10:00,
2013-06-05 02:15:00,54.2,40.6,29.98,North,0,0.0,0.0,60,0.00,,,0.00,WUHU216HW,2013-06-05 06:15:00,
2013-06-05 02:20:00,53.8,40.7,29.99,North,0,0.0,0.0,61,0.00,,,0.00,WUHU216HW,2013-06-05 06:20:00,
2013-06-05 02:25:00,53.8,40.7,29.99,North,0,0.0,0.0,61,0.00,,,0.00,WUHU216HW,2013-06-05 06:25:00,
2013-06-05 02:30:00,53.8,40.3,29.99,North,0,0.0,0.0,60,0.00,,,0.00,WUHU216HW,2013-06-05 06:30:00,
2013-06-05 02:35:00,53.5,40.0,29.99,North,0,0.0,0.0,60,0.00,,,0.00,WUHU216HW,2013-06-05 06:35:00,
2013-06-05 02:40:00,52.9,40.2,29.99,North,0,0.0,0.0,62,0.00,,,0.00,WUHU216HW,2013-06-05 06:40:00,
2013-06-05 02:45:00,52.6,40.3,29.99,North,0,0.0,0.0,63,0.00,,,0.00,WUHU216HW,2013-06-05 06:45:00,
2013-06-05 02:50:00,52.4,40.2,29.99,North,0,0.0,0.0,63,0.00,,,0.00,WUHU216HW,2013-06-05 06:50:00,
2013-06-05 02:55:00,52.9,40.6,29.99,North,0,0.0,0.0,63,0.00,,,0.00,WUHU216HW,2013-06-05 06:55:00,
2013-06-05 03:00:00,52.9,39.8,29.99,North,0,0.0,0.0,61,0.00,,,0.00,WUHU216HW,2013-06-05 07:00:00,
2013-06-05 03:06:00,52.9,39.8,29.99,North,0,0.0,0.0,61,0.00,,,0.00,WUHU216HW,2013-06-05 07:06:00,
2013-06-05 03:11:00,52.6,39.9,29.99,North,0,0.0,0.0,62,0.00,,,0.00,WUHU216HW,2013-06-05 07:11:00,
2013-06-05 03:16:00,52.2,39.5,29.98,North,0,0.0,0.0,62,0.00,,,0.00,WUHU216HW,2013-06-05 07:16:00,
2013-06-05 03:21:00,51.8,39.6,29.98,North,0,0.0,0.0,63,0.00,,,0.00,WUHU216HW,2013-06-05 07:21:00,
2013-06-05 03:26:00,51.3,39.9,29.98,North,0,0.0,0.0,65,0.00,,,0.00,WUHU216HW,2013-06-05 07:26:00,
2013-06-05 03:32:00,50.8,39.8,29.98,North,0,0.0,0.0,66,0.00,,,0.00,WUHU216HW,2013-06-05 07:32:00,
2013-06-05 03:37:00,50.6,39.3,29.98,North,0,0.0,0.0,65,0.00,,,0.00,WUHU216HW,2013-06-05 07:37:00,
2013-06-05 03:42:00,50.6,39.3,29.98,North,0,0.0,0.0,65,0.00,,,0.00,WUHU216HW,2013-06-05 07:42:00,
2013-06-05 03:47:00,50.6,39.3,29.98,North,0,0.0,0.0,65,0.00,,,0.00,WUHU216HW,2013-06-05 07:47:00,
2013-06-05 03:52:00,50.8,39.4,29.98,North,0,0.0,0.0,65,0.00,,,0.00,WUHU216HW,2013-06-05 07:52:00,
2013-06-05 03:57:00,51.1,39.3,29.98,North,0,0.0,0.0,64,0.00,,,0.00,WUHU216HW,2013-06-05 07:57:00,
2013-06-05 04:02:00,51.1,38.9,29.98,North,0,0.0,0.0,63,0.00,,,0.00,WUHU216HW,2013-06-05 08:02:00,
2013-06-05 04:07:00,51.1,39.3,29.98,North,0,0.0,0.0,64,0.00,,,0.00,WUHU216HW,2013-06-05 08:07:00,
2013-06-05 04:12:00,50.9,39.2,29.98,North,0,0.0,0.0,64,0.00,,,0.00,WUHU216HW,2013-06-05 08:12:00,
2013-06-05 04:17:00,50.8,39.4,29.98,North,0,0.0,0.0,65,0.00,,,0.00,WUHU216HW,2013-06-05 08:17:00,
2013-06-05 04:22:00,50.6,39.6,29.98,North,0,0.0,0.0,66,0.00,,,0.00,WUHU216HW,2013-06-05 08:22:00,
2013-06-05 04:27:00,50.6,39.3,29.98,North,0,0.0,0.0,65,0.00,,,0.00,WUHU216HW,2013-06-05 08:27:00,
2013-06-05 04:32:00,50.2,39.7,29.98,North,0,0.0,0.0,67,0.00,,,0.00,WUHU216HW,2013-06-05 08:32:00,
2013-06-05 04:37:00,49.9,38.5,29.99,North,0,0.0,0.0,65,0.00,,,0.00,WUHU216HW,2013-06-05 08:37:00,
2013-06-05 04:42:00,49.9,38.5,29.99,North,0,0.0,0.0,65,0.00,,,0.00,WUHU216HW,2013-06-05 08:42:00,
2013-06-05 04:48:00,49.9,38.9,29.99,North,0,0.0,0.0,66,0.00,,,0.00,WUHU216HW,2013-06-05 08:48:00,
2013-06-05 04:53:00,49.7,39.2,29.99,North,0,0.0,0.0,67,0.00,,,0.00,WUHU216HW,2013-06-05 08:53:00,
2013-06-05 04:58:00,49.5,39.3,30.00,North,0,0.0,0.0,68,0.00,,,0.00,WUHU216HW,2013-06-05 08:58:00,
2013-06-05 05:03:00,49.3,39.2,30.00,North,0,0.0,0.0,68,0.00,,,0.00,WUHU216HW,2013-06-05 09:03:00,
2013-06-05 05:08:00,49.1,39.0,30.00,North,0,0.0,0.0,68,0.00,,,0.00,WUHU216HW,2013-06-05 09:08:00,
2013-06-05 05:13:00,48.8,39.1,30.00,North,0,0.0,0.0,69,0.00,,,0.00,WUHU216HW,2013-06-05 09:13:00,
2013-06-05 05:18:00,48.6,39.6,30.01,North,0,0.0,0.0,71,0.00,,,0.00,WUHU216HW,2013-06-05 09:18:00,
2013-06-05 05:23:00,48.2,39.6,30.01,North,0,0.0,0.0,72,0.00,,,0.00,WUHU216HW,2013-06-05 09:23:00,
2013-06-05 05:28:00,48.1,39.4,30.01,North,0,0.0,0.0,72,0.00,,,0.00,WUHU216HW,2013-06-05 09:28:00,
2013-06-05 05:33:00,47.9,39.2,30.01,North,0,0.0,0.0,72,0.00,,,0.00,WUHU216HW,2013-06-05 09:33:00,
2013-06-05 05:38:00,47.7,39.4,30.01,North,0,0.0,0.0,73,0.00,,,0.00,WUHU216HW,2013-06-05 09:38:00,
2013-06-05 05:43:00,47.5,39.6,30.02,North,0,0.0,0.0,74,0.00,,,0.00,WUHU216HW,2013-06-05 09:43:00,
2013-06-05 05:48:00,47.3,39.4,30.02,North,0,0.0,0.0,74,0.00,,,0.00,WUHU216HW,2013-06-05 09:48:00,
2013-06-05 05:53:00,47.5,40.3,30.02,North,0,0.0,0.0,76,0.00,,,0.00,WUHU216HW,2013-06-05 09:53:00,
2013-06-05 05:59:00,47.7,40.4,30.03,North,0,0.0,0.0,76,0.00,,,0.00,WUHU216HW,2013-06-05 09:59:00,
2013-06-05 06:04:00,47.9,40.6,30.03,North,0,0.0,0.0,76,0.00,,,0.00,WUHU216HW,2013-06-05 10:04:00,
2013-06-05 06:09:00,48.1,41.5,30.03,North,0,0.0,0.0,78,0.00,,,0.00,WUHU216HW,2013-06-05 10:09:00,
2013-06-05 06:14:00,48.4,41.1,30.03,North,0,0.0,0.0,76,0.00,,,0.00,WUHU216HW,2013-06-05 10:14:00,
2013-06-05 06:19:00,48.6,41.7,30.03,North,0,0.0,0.0,77,0.00,,,0.00,WUHU216HW,2013-06-05 10:19:00,
2013-06-05 06:24:00,48.8,41.5,30.04,North,0,0.0,0.0,76,0.00,,,0.00,WUHU216HW,2013-06-05 10:24:00,
2013-06-05 06:29:00,49.0,41.7,30.03,North,0,0.0,0.0,76,0.00,,,0.00,WUHU216HW,2013-06-05 10:29:00,
2013-06-05 06:34:00,49.3,42.0,30.04,North,0,0.0,0.0,76,0.00,,,0.00,WUHU216HW,2013-06-05 10:34:00,
2013-06-05 06:39:00,49.7,42.4,30.04,North,0,0.0,0.0,76,0.00,,,0.00,WUHU216HW,2013-06-05 10:39:00,
2013-06-05 06:44:00,50.2,43.3,30.04,North,0,0.0,0.0,77,0.00,,,0.00,WUHU216HW,2013-06-05 10:44:00,
2013-06-05 06:49:00,50.8,43.8,30.04,North,0,0.0,0.0,77,0.00,,,0.00,WUHU216HW,2013-06-05 10:49:00,
2013-06-05 06:54:00,52.2,45.5,30.05,North,0,0.0,0.0,78,0.00,,,0.00,WUHU216HW,2013-06-05 10:54:00,
2013-06-05 06:59:00,54.5,47.4,30.05,North,0,0.0,0.0,77,0.00,,,0.00,WUHU216HW,2013-06-05 10:59:00,
2013-06-05 07:04:00,56.3,47.8,30.05,North,0,0.0,0.0,73,0.00,,,0.00,WUHU216HW,2013-06-05 11:04:00,
2013-06-05 07:09:00,58.0,48.2,30.06,North,0,0.0,0.0,70,0.00,,,0.00,WUHU216HW,2013-06-05 11:09:00,
2013-06-05 07:15:00,60.5,49.5,30.05,North,0,0.0,0.0,67,0.00,,,0.00,WUHU216HW,2013-06-05 11:15:00,
2013-06-05 07:19:00,61.7,50.3,30.05,North,0,0.0,0.0,66,0.00,,,0.00,WUHU216HW,2013-06-05 11:19:00,
2013-06-05 07:25:00,62.6,49.9,30.06,North,0,0.0,0.0,63,0.00,,,0.00,WUHU216HW,2013-06-05 11:25:00,
2013-06-05 07:30:00,63.4,49.7,30.06,North,0,0.0,0.0,61,0.00,,,0.00,WUHU216HW,2013-06-05 11:30:00,
2013-06-05 07:35:00,63.7,49.1,30.06,North,0,0.0,0.0,59,0.00,,,0.00,WUHU216HW,2013-06-05 11:35:00,
2013-06-05 07:40:00,63.4,48.2,30.06,North,0,0.0,0.0,58,0.00,,,0.00,WUHU216HW,2013-06-05 11:40:00,
2013-06-05 07:45:00,64.1,49.4,30.06,North,0,0.0,0.0,59,0.00,,,0.00,WUHU216HW,2013-06-05 11:45:00,
2013-06-05 07:50:00,64.8,49.6,30.06,North,0,0.0,0.0,58,0.00,,,0.00,WUHU216HW,2013-06-05 11:50:00,
2013-06-05 07:55:00,65.9,48.2,30.05,North,0,0.0,0.0,53,0.00,,,0.00,WUHU216HW,2013-06-05 11:55:00,
2013-06-05 08:00:00,67.3,50.0,30.06,North,0,0.0,0.0,54,0.00,,,0.00,WUHU216HW,2013-06-05 12:00:00,
2013-06-05 08:05:00,68.0,49.8,30.06,North,0,0.0,0.0,52,0.00,,,0.00,WUHU216HW,2013-06-05 12:05:00,
2013-06-05 08:10:00,67.9,49.2,30.05,North,0,0.0,0.0,51,0.00,,,0.00,WUHU216HW,2013-06-05 12:10:00,
2013-06-05 08:15:00,66.2,46.0,30.05,North,0,0.0,0.0,48,0.00,,,0.00,WUHU216HW,2013-06-05 12:15:00,
2013-06-05 08:20:00,64.4,44.8,30.06,North,0,0.0,0.0,49,0.00,,,0.00,WUHU216HW,2013-06-05 12:20:00,
2013-06-05 08:26:00,63.5,44.6,30.05,North,0,0.0,0.0,50,0.00,,,0.00,WUHU216HW,2013-06-05 12:26:00,
2013-06-05 08:31:00,62.8,44.9,30.06,North,0,0.0,0.0,52,0.00,,,0.00,WUHU216HW,2013-06-05 12:31:00,
2013-06-05 08:36:00,62.8,45.8,30.06,North,0,0.0,0.0,54,0.00,,,0.00,WUHU216HW,2013-06-05 12:36:00,
2013-06-05 08:41:00,63.0,46.0,30.06,North,0,0.0,0.0,54,0.00,,,0.00,WUHU216HW,2013-06-05 12:41:00,
2013-06-05 08:46:00,62.6,46.6,30.06,North,0,0.0,0.0,56,0.00,,,0.00,WUHU216HW,2013-06-05 12:46:00,
2013-06-05 08:51:00,62.6,44.7,30.06,North,0,0.0,0.0,52,0.00,,,0.00,WUHU216HW,2013-06-05 12:51:00,
2013-06-05 08:56:00,62.8,45.4,30.06,North,0,0.0,0.0,53,0.00,,,0.00,WUHU216HW,2013-06-05 12:56:00,
2013-06-05 09:01:00,63.0,45.6,30.06,North,0,0.0,0.0,53,0.00,,,0.00,WUHU216HW,2013-06-05 13:01:00,
2013-06-05 09:06:00,63.2,45.2,30.06,North,0,0.0,0.0,52,0.00,,,0.00,WUHU216HW,2013-06-05 13:06:00,
2013-06-05 09:11:00,63.4,45.4,30.06,North,0,0.0,0.0,52,0.00,,,0.00,WUHU216HW,2013-06-05 13:11:00,
2013-06-05 09:17:00,63.7,46.6,30.06,North,0,0.0,0.0,54,0.00,,,0.00,WUHU216HW,2013-06-05 13:17:00,
2013-06-05 09:21:00,64.1,46.5,30.06,North,0,0.0,0.0,53,0.00,,,0.00,WUHU216HW,2013-06-05 13:21:00,
2013-06-05 09:27:00,64.4,47.4,30.07,North,0,0.0,0.0,54,0.00,,,0.00,WUHU216HW,2013-06-05 13:27:00,
2013-06-05 09:32:00,64.8,46.7,30.07,North,0,0.0,0.0,52,0.00,,,0.00,WUHU216HW,2013-06-05 13:32:00,
2013-06-05 09:37:00,65.2,48.1,30.07,North,0,0.0,0.0,54,0.00,,,0.00,WUHU216HW,2013-06-05 13:37:00,
2013-06-05 09:42:00,65.7,48.6,30.07,North,0,0.0,0.0,54,0.00,,,0.00,WUHU216HW,2013-06-05 13:42:00,
2013-06-05 09:47:00,65.9,48.2,30.06,North,0,0.0,0.0,53,0.00,,,0.00,WUHU216HW,2013-06-05 13:47:00,
2013-06-05 09:52:00,65.9,48.2,30.06,North,0,0.0,0.0,53,0.00,,,0.00,WUHU216HW,2013-06-05 13:52:00,
2013-06-05 09:57:00,65.9,47.8,30.06,North,0,0.0,0.0,52,0.00,,,0.00,WUHU216HW,2013-06-05 13:57:00,
2013-06-05 10:02:00,66.4,49.2,30.06,North,0,0.0,0.0,54,0.00,,,0.00,WUHU216HW,2013-06-05 14:02:00,
2013-06-05 10:07:00,67.0,49.2,30.06,North,0,0.0,0.0,53,0.00,,,0.00,WUHU216HW,2013-06-05 14:07:00,
2013-06-05 10:12:00,67.1,49.0,30.06,North,0,0.0,0.0,52,0.00,,,0.00,WUHU216HW,2013-06-05 14:12:00,
2013-06-05 10:17:00,67.3,49.6,30.06,North,0,0.0,0.0,53,0.00,,,0.00,WUHU216HW,2013-06-05 14:17:00,
2013-06-05 10:22:00,67.9,50.0,30.06,North,0,0.0,0.0,53,0.00,,,0.00,WUHU216HW,2013-06-05 14:22:00,
2013-06-05 10:27:00,68.2,49.0,30.06,North,0,0.0,0.0,50,0.00,,,0.00,WUHU216HW,2013-06-05 14:27:00,
2013-06-05 10:32:00,68.4,49.6,30.06,North,0,0.0,0.0,51,0.00,,,0.00,WUHU216HW,2013-06-05 14:32:00,
2013-06-05 10:37:00,68.4,49.2,30.06,North,0,0.0,0.0,50,0.00,,,0.00,WUHU216HW,2013-06-05 14:37:00,
2013-06-05 10:42:00,68.8,50.0,30.05,North,0,0.0,0.0,51,0.00,,,0.00,WUHU216HW,2013-06-05 14:42:00,
2013-06-05 10:47:00,68.9,50.1,30.05,North,0,0.0,0.0,51,0.00,,,0.00,WUHU216HW,2013-06-05 14:47:00,
2013-06-05 10:52:00,69.3,50.4,30.05,North,0,0.0,0.0,51,0.00,,,0.00,WUHU216HW,2013-06-05 14:52:00,
2013-06-05 10:58:00,69.5,50.0,30.05,North,0,0.0,0.0,50,0.00,,,0.00,WUHU216HW,2013-06-05 14:58:00,
2013-06-05 11:03:00,69.8,51.0,30.05,North,0,0.0,0.0,51,0.00,,,0.00,WUHU216HW,2013-06-05 15:03:00,
2013-06-05 11:08:00,70.4,51.4,30.05,North,0,0.0,0.0,51,0.00,,,0.00,WUHU216HW,2013-06-05 15:08:00,
2013-06-05 11:13:00,70.7,50.6,30.05,North,0,0.0,0.0,49,0.00,,,0.00,WUHU216HW,2013-06-05 15:13:00,
2013-06-05 11:18:00,71.1,50.9,30.05,North,0,0.0,0.0,49,0.00,,,0.00,WUHU216HW,2013-06-05 15:18:00,
2013-06-05 11:23:00,70.9,50.8,30.05,North,0,0.0,0.0,49,0.00,,,0.00,WUHU216HW,2013-06-05 15:23:00,
2013-06-05 11:28:00,71.3,51.1,30.04,North,0,0.0,0.0,49,0.00,,,0.00,WUHU216HW,2013-06-05 15:28:00,
2013-06-05 11:33:00,71.3,50.5,30.04,North,0,0.0,0.0,48,0.00,,,0.00,WUHU216HW,2013-06-05 15:33:00,
2013-06-05 11:38:00,71.5,50.7,30.04,North,0,0.0,0.0,48,0.00,,,0.00,WUHU216HW,2013-06-05 15:38:00,
2013-06-05 11:43:00,71.5,50.0,30.04,North,0,0.0,0.0,47,0.00,,,0.00,WUHU216HW,2013-06-05 15:43:00,
2013-06-05 11:48:00,72.0,50.6,30.04,North,0,0.0,0.0,47,0.00,,,0.00,WUHU216HW,2013-06-05 15:48:00,
2013-06-05 11:53:00,72.0,50.0,30.04,North,0,0.0,0.0,46,0.00,,,0.00,WUHU216HW,2013-06-05 15:53:00,
2013-06-05 11:58:00,71.8,51.0,30.04,North,0,0.0,0.0,48,0.00,,,0.00,WUHU216HW,2013-06-05 15:58:00,
2013-06-05 12:03:00,72.0,50.0,30.04,North,0,0.0,0.0,46,0.00,,,0.00,WUHU216HW,2013-06-05 16:03:00,
2013-06-05 12:08:00,72.4,49.2,30.03,North,0,0.0,0.0,44,0.00,,,0.00,WUHU216HW,2013-06-05 16:08:00,
2013-06-05 12:13:00,72.7,50.6,30.03,North,0,0.0,0.0,46,0.00,,,0.00,WUHU216HW,2013-06-05 16:13:00,
2013-06-05 12:18:00,73.1,49.8,30.03,North,0,0.0,0.0,44,0.00,,,0.00,WUHU216HW,2013-06-05 16:18:00,
2013-06-05 12:24:00,73.3,50.5,30.03,North,0,0.0,0.0,45,0.00,,,0.00,WUHU216HW,2013-06-05 16:24:00,
2013-06-05 12:29:00,73.6,50.2,30.03,North,0,0.0,0.0,44,0.00,,,0.00,WUHU216HW,2013-06-05 16:29:00,
2013-06-05 12:34:00,73.6,49.7,30.02,North,0,0.0,0.0,43,0.00,,,0.00,WUHU216HW,2013-06-05 16:34:00,
2013-06-05 12:39:00,73.8,51.0,30.02,North,0,0.0,0.0,45,0.00,,,0.00,WUHU216HW,2013-06-05 16:39:00,
2013-06-05 12:44:00,73.8,49.2,30.02,North,0,0.0,0.0,42,0.00,,,0.00,WUHU216HW,2013-06-05 16:44:00,
2013-06-05 12:49:00,73.6,50.2,30.02,North,0,0.0,0.0,44,0.00,,,0.00,WUHU216HW,2013-06-05 16:49:00,
2013-06-05 12:54:00,74.2,50.8,30.02,North,0,0.0,0.0,44,0.00,,,0.00,WUHU216HW,2013-06-05 16:54:00,
2013-06-05 12:59:00,73.8,49.9,30.01,North,0,0.0,0.0,43,0.00,,,0.00,WUHU216HW,2013-06-05 16:59:00,
2013-06-05 13:04:00,73.1,49.8,30.01,North,0,0.0,0.0,44,0.00,,,0.00,WUHU216HW,2013-06-05 17:04:00,
2013-06-05 13:09:00,73.1,49.8,30.01,North,0,0.0,0.0,44,0.00,,,0.00,WUHU216HW,2013-06-05 17:09:00,
2013-06-05 13:14:00,73.8,51.6,30.00,North,0,0.0,0.0,46,0.00,,,0.00,WUHU216HW,2013-06-05 17:14:00,
2013-06-05 13:19:00,74.3,52.1,30.00,North,0,0.0,0.0,46,0.00,,,0.00,WUHU216HW,2013-06-05 17:19:00,
2013-06-05 13:24:00,74.3,51.6,30.00,North,0,0.0,0.0,45,0.00,,,0.00,WUHU216HW,2013-06-05 17:24:00,
2013-06-05 13:29:00,73.8,50.4,30.00,North,0,0.0,0.0,44,0.00,,,0.00,WUHU216HW,2013-06-05 17:29:00,
2013-06-05 13:34:00,73.1,50.3,30.00,North,0,0.0,0.0,45,0.00,,,0.00,WUHU216HW,2013-06-05 17:34:00,
2013-06-05 13:39:00,72.7,51.9,30.00,North,0,0.0,0.0,48,0.00,,,0.00,WUHU216HW,2013-06-05 17:39:00,
2013-06-05 13:44:00,72.7,51.2,30.00,North,0,0.0,0.0,47,0.00,,,0.00,WUHU216HW,2013-06-05 17:44:00,
2013-06-05 13:49:00,73.1,52.1,30.00,North,0,0.0,0.0,48,0.00,,,0.00,WUHU216HW,2013-06-05 17:49:00,
2013-06-05 13:55:00,72.7,50.6,30.00,North,0,0.0,0.0,46,0.00,,,0.00,WUHU216HW,2013-06-05 17:55:00,
2013-06-05 14:00:00,72.7,51.2,30.00,North,0,0.0,0.0,47,0.00,,,0.00,WUHU216HW,2013-06-05 18:00:00,
2013-06-05 14:05:00,73.1,50.9,30.00,North,0,0.0,0.0,46,0.00,,,0.00,WUHU216HW,2013-06-05 18:05:00,
2013-06-05 14:10:00,73.1,51.6,30.00,North,0,0.0,0.0,47,0.00,,,0.00,WUHU216HW,2013-06-05 18:10:00,
2013-06-05 14:15:00,73.4,51.8,30.00,North,0,0.0,0.0,47,0.00,,,0.00,WUHU216HW,2013-06-05 18:15:00,
2013-06-05 14:20:00,73.6,51.5,29.99,North,0,0.0,0.0,46,0.00,,,0.00,WUHU216HW,2013-06-05 18:20:00,
2013-06-05 14:25:00,73.4,51.3,29.99,North,0,0.0,0.0,46,0.00,,,0.00,WUHU216HW,2013-06-05 18:25:00,
2013-06-05 14:30:00,73.3,50.5,30.00,North,0,0.0,0.0,45,0.00,,,0.00,WUHU216HW,2013-06-05 18:30:00,
2013-06-05 14:35:00,73.4,51.8,29.99,North,0,0.0,0.0,47,0.00,,,0.00,WUHU216HW,2013-06-05 18:35:00,
2013-06-05 14:40:00,74.2,51.9,29.98,North,0,0.0,0.0,46,0.00,,,0.00,WUHU216HW,2013-06-05 18:40:00,
2013-06-05 14:45:00,74.5,52.3,29.98,North,0,0.0,0.0,46,0.00,,,0.00,WUHU216HW,2013-06-05 18:45:00,
2013-06-05 14:50:00,74.5,52.3,29.99,North,0,0.0,0.0,46,0.00,,,0.00,WUHU216HW,2013-06-05 18:50:00,
2013-06-05 14:55:00,74.5,51.1,29.98,North,0,0.0,0.0,44,0.00,,,0.00,WUHU216HW,2013-06-05 18:55:00,
2013-06-05 15:00:00,74.0,51.2,29.98,North,0,0.0,0.0,45,0.00,,,0.00,WUHU216HW,2013-06-05 19:00:00,
2013-06-05 15:05:00,73.8,51.0,29.98,North,0,0.0,0.0,45,0.00,,,0.00,WUHU216HW,2013-06-05 19:05:00,
2013-06-05 15:10:00,74.0,52.4,29.97,North,0,0.0,0.0,47,0.00,,,0.00,WUHU216HW,2013-06-05 19:10:00,
2013-06-05 15:15:00,74.3,53.4,29.97,North,0,0.0,0.0,48,0.00,,,0.00,WUHU216HW,2013-06-05 19:15:00,
2013-06-05 15:20:00,75.1,52.2,29.97,North,0,0.0,0.0,45,0.00,,,0.00,WUHU216HW,2013-06-05 19:20:00,
2013-06-05 15:25:00,75.1,52.8,29.97,North,0,0.0,0.0,46,0.00,,,0.00,WUHU216HW,2013-06-05 19:25:00,
2013-06-05 15:30:00,75.2,52.4,29.97,North,0,0.0,0.0,45,0.00,,,0.00,WUHU216HW,2013-06-05 19:30:00,
2013-06-05 15:35:00,75.1,51.6,29.97,North,0,0.0,0.0,44,0.00,,,0.00,WUHU216HW,2013-06-05 19:35:00,
2013-06-05 15:40:00,75.1,52.2,29.98,North,0,0.0,0.0,45,0.00,,,0.00,WUHU216HW,2013-06-05 19:40:00,
2013-06-05 15:46:00,75.1,52.2,29.98,North,0,0.0,0.0,45,0.00,,,0.00,WUHU216HW,2013-06-05 19:46:00,
2013-06-05 15:51:00,75.4,52.6,29.97,North,0,0.0,0.0,45,0.00,,,0.00,WUHU216HW,2013-06-05 19:51:00,
2013-06-05 15:56:00,75.6,52.1,29.98,North,0,0.0,0.0,44,0.00,,,0.00,WUHU216HW,2013-06-05 19:56:00,
2013-06-05 16:01:00,75.2,51.8,29.98,North,0,0.0,0.0,44,0.00,,,0.00,WUHU216HW,2013-06-05 20:01:00,
2013-06-05 16:06:00,75.6,53.3,29.98,North,0,0.0,0.0,46,0.00,,,0.00,WUHU216HW,2013-06-05 20:06:00,
2013-06-05 16:11:00,76.5,52.9,29.98,North,0,0.0,0.0,44,0.00,,,0.00,WUHU216HW,2013-06-05 20:11:00,
2013-06-05 16:16:00,76.7,53.6,29.98,North,0,0.0,0.0,45,0.00,,,0.00,WUHU216HW,2013-06-05 20:16:00,
2013-06-05 16:21:00,76.7,53.1,29.98,North,0,0.0,0.0,44,0.00,,,0.00,WUHU216HW,2013-06-05 20:21:00,
2013-06-05 16:26:00,76.7,52.5,29.98,North,0,0.0,0.0,43,0.00,,,0.00,WUHU216HW,2013-06-05 20:26:00,
2013-06-05 16:31:00,76.9,53.8,29.98,North,0,0.0,0.0,45,0.00,,,0.00,WUHU216HW,2013-06-05 20:31:00,
2013-06-05 16:36:00,77.2,52.9,29.98,North,0,0.0,0.0,43,0.00,,,0.00,WUHU216HW,2013-06-05 20:36:00,
2013-06-05 16:41:00,77.0,52.7,29.98,North,0,0.0,0.0,43,0.00,,,0.00,WUHU216HW,2013-06-05 20:41:00,
2013-06-05 16:46:00,77.0,52.7,29.98,North,0,0.0,0.0,43,0.00,,,0.00,WUHU216HW,2013-06-05 20:46:00,
2013-06-05 16:51:00,76.7,51.8,29.98,North,0,0.0,0.0,42,0.00,,,0.00,WUHU216HW,2013-06-05 20:51:00,
2013-06-05 16:56:00,76.9,53.2,29.99,North,0,0.0,0.0,44,0.00,,,0.00,WUHU216HW,2013-06-05 20:56:00,
2013-06-05 17:01:00,77.4,53.1,29.99,North,0,0.0,0.0,43,0.00,,,0.00,WUHU216HW,2013-06-05 21:01:00,
2013-06-05 17:06:00,77.9,53.6,29.98,North,0,0.0,0.0,43,0.00,,,0.00,WUHU216HW,2013-06-05 21:06:00,
2013-06-05 17:11:00,79.6,53.8,29.99,North,0,0.0,0.0,41,0.00,,,0.00,WUHU216HW,2013-06-05 21:11:00,
2013-06-05 17:16:00,81.0,53.7,29.98,North,0,0.0,0.0,39,0.00,,,0.00,WUHU216HW,2013-06-05 21:16:00,
2013-06-05 17:21:00,82.1,54.7,29.98,North,0,0.0,0.0,39,0.00,,,0.00,WUHU216HW,2013-06-05 21:21:00,
2013-06-05 17:27:00,83.2,55.6,29.98,North,0,0.0,0.0,39,0.00,,,0.00,WUHU216HW,2013-06-05 21:27:00,
2013-06-05 17:32:00,83.9,55.5,29.98,North,0,0.0,0.0,38,0.00,,,0.00,WUHU216HW,2013-06-05 21:32:00,
2013-06-05 17:37:00,83.7,54.5,29.99,North,0,0.0,0.0,37,0.00,,,0.00,WUHU216HW,2013-06-05 21:37:00,
2013-06-05 17:42:00,84.1,51.8,29.99,North,0,0.0,0.0,33,0.00,,,0.00,WUHU216HW,2013-06-05 21:42:00,
2013-06-05 17:47:00,84.2,55.1,29.99,North,0,0.0,0.0,37,0.00,,,0.00,WUHU216HW,2013-06-05 21:47:00,
2013-06-05 17:52:00,86.0,56.7,29.99,North,0,0.0,0.0,37,0.00,,,0.00,WUHU216HW,2013-06-05 21:52:00,
2013-06-05 17:57:00,86.9,57.4,29.99,North,0,0.0,0.0,37,0.00,,,0.00,WUHU216HW,2013-06-05 21:57:00,
2013-06-05 18:02:00,87.8,57.4,29.99,North,0,0.0,0.0,36,0.00,,,0.00,WUHU216HW,2013-06-05 22:02:00,
2013-06-05 18:07:00,87.8,57.4,29.98,North,0,0.0,0.0,36,0.00,,,0.00,WUHU216HW,2013-06-05 22:07:00,
2013-06-05 18:12:00,87.5,55.5,29.98,North,0,0.0,0.0,34,0.00,,,0.00,WUHU216HW,2013-06-05 22:12:00,
2013-06-05 18:17:00,87.7,55.6,29.98,North,0,0.0,0.0,34,0.00,,,0.00,WUHU216HW,2013-06-05 22:17:00,
2013-06-05 18:22:00,86.6,54.7,29.97,North,0,0.0,0.0,34,0.00,,,0.00,WUHU216HW,2013-06-05 22:22:00,
2013-06-05 18:27:00,86.2,54.5,29.97,North,0,0.0,0.0,34,0.00,,,0.00,WUHU216HW,2013-06-05 22:27:00,
2013-06-05 18:32:00,85.9,54.1,29.97,North,0,0.0,0.0,34,0.00,,,0.00,WUHU216HW,2013-06-05 22:32:00,
2013-06-05 18:37:00,85.5,54.6,29.97,North,0,0.0,0.0,35,0.00,,,0.00,WUHU216HW,2013-06-05 22:37:00,
2013-06-05 18:43:00,85.5,54.6,29.96,North,0,0.0,0.0,35,0.00,,,0.00,WUHU216HW,2013-06-05 22:43:00,
2013-06-05 18:47:00,85.9,54.9,29.97,North,0,0.0,0.0,35,0.00,,,0.00,WUHU216HW,2013-06-05 22:47:00,
2013-06-05 18:53:00,85.7,54.0,29.97,North,0,0.0,0.0,34,0.00,,,0.00,WUHU216HW,2013-06-05 22:53:00,
2013-06-05 18:58:00,85.5,54.6,29.97,North,0,0.0,0.0,35,0.00,,,0.00,WUHU216HW,2013-06-05 22:58:00,
2013-06-05 19:03:00,85.1,53.5,29.97,North,0,0.0,0.0,34,0.00,,,0.00,WUHU216HW,2013-06-05 23:03:00,
2013-06-05 19:08:00,83.0,53.1,29.97,North,0,0.0,0.0,36,0.00,,,0.00,WUHU216HW,2013-06-05 23:08:00,
2013-06-05 19:13:00,81.0,52.9,29.97,North,0,0.0,0.0,38,0.00,,,0.00,WUHU216HW,2013-06-05 23:13:00,
2013-06-05 19:18:00,79.2,52.1,29.96,North,0,0.0,0.0,39,0.00,,,0.00,WUHU216HW,2013-06-05 23:18:00,
2013-06-05 19:23:00,77.4,51.3,29.97,North,0,0.0,0.0,40,0.00,,,0.00,WUHU216HW,2013-06-05 23:23:00,
2013-06-05 19:28:00,75.4,50.7,29.97,North,0,0.0,0.0,42,0.00,,,0.00,WUHU216HW,2013-06-05 23:28:00,
2013-06-05 19:33:00,74.2,50.8,29.96,North,0,0.0,0.0,44,0.00,,,0.00,WUHU216HW,2013-06-05 23:33:00,
2013-06-05 19:38:00,73.3,50.5,29.96,North,0,0.0,0.0,45,0.00,,,0.00,WUHU216HW,2013-06-05 23:38:00,
2013-06-05 19:43:00,72.5,51.0,29.97,North,0,0.0,0.0,47,0.00,,,0.00,WUHU216HW,2013-06-05 23:43:00,
2013-06-05 19:48:00,72.0,50.6,29.97,North,0,0.0,0.0,47,0.00,,,0.00,WUHU216HW,2013-06-05 23:48:00,
2013-06-05 19:53:00,71.5,50.7,29.97,North,0,0.0,0.0,48,0.00,,,0.00,WUHU216HW,2013-06-05 23:53:00,
2013-06-05 19:58:00,70.9,50.8,29.97,North,0,0.0,0.0,49,0.00,,,0.00,WUHU216HW,2013-06-05 23:58:00,
2013-06-05 20:04:00,70.0,50.6,29.97,North,0,0.0,0.0,50,0.00,,,0.00,WUHU216HW,2013-06-06 00:04:00,
2013-06-05 20:09:00,69.5,50.6,29.98,North,0,0.0,0.0,51,0.00,,,0.00,WUHU216HW,2013-06-06 00:09:00,
2013-06-05 20:14:00,68.8,50.0,29.98,North,0,0.0,0.0,51,0.00,,,0.00,WUHU216HW,2013-06-06 00:14:00,
2013-06-05 20:19:00,68.4,50.0,29.97,North,0,0.0,0.0,52,0.00,,,0.00,WUHU216HW,2013-06-06 00:19:00,
2013-06-05 20:24:00,67.7,50.0,29.97,North,0,0.0,0.0,53,0.00,,,0.00,WUHU216HW,2013-06-06 00:24:00,
2013-06-05 20:29:00,67.1,50.4,29.97,North,0,0.0,0.0,55,0.00,,,0.00,WUHU216HW,2013-06-06 00:29:00,
2013-06-05 20:34:00,66.6,50.0,29.98,North,0,0.0,0.0,55,0.00,,,0.00,WUHU216HW,2013-06-06 00:34:00,
2013-06-05 20:39:00,66.1,50.4,29.98,North,0,0.0,0.0,57,0.00,,,0.00,WUHU216HW,2013-06-06 00:39:00,
2013-06-05 20:44:00,65.5,49.3,29.98,North,0,0.0,0.0,56,0.00,,,0.00,WUHU216HW,2013-06-06 00:44:00,
2013-06-05 20:49:00,65.2,50.0,29.98,North,0,0.0,0.0,58,0.00,,,0.00,WUHU216HW,2013-06-06 00:49:00,
2013-06-05 20:54:00,64.8,49.6,29.97,North,0,0.0,0.0,58,0.00,,,0.00,WUHU216HW,2013-06-06 00:54:00,
2013-06-05 20:59:00,64.4,49.2,29.97,North,0,0.0,0.0,58,0.00,,,0.00,WUHU216HW,2013-06-06 00:59:00,
2013-06-05 21:04:00,63.9,49.2,29.98,North,0,0.0,0.0,59,0.00,,,0.00,WUHU216HW,2013-06-06 01:04:00,
2013-06-05 21:09:00,63.5,50.2,29.98,North,0,0.0,0.0,62,0.00,,,0.00,WUHU216HW,2013-06-06 01:09:00,
2013-06-05 21:15:00,63.2,50.0,29.99,North,0,0.0,0.0,62,0.00,,,0.00,WUHU216HW,2013-06-06 01:15:00,
2013-06-05 21:20:00,62.8,49.1,29.99,North,0,0.0,0.0,61,0.00,,,0.00,WUHU216HW,2013-06-06 01:20:00,
2013-06-05 21:25:00,62.5,48.9,29.99,North,0,0.0,0.0,61,0.00,,,0.00,WUHU216HW,2013-06-06 01:25:00,
2013-06-05 21:30:00,62.3,49.2,29.99,North,0,0.0,0.0,62,0.00,,,0.00,WUHU216HW,2013-06-06 01:30:00,
2013-06-05 21:35:00,62.3,50.3,29.98,North,0,0.0,0.0,65,0.00,,,0.00,WUHU216HW,2013-06-06 01:35:00,
2013-06-05 21:40:00,62.3,50.0,29.99,North,0,0.0,0.0,64,0.00,,,0.00,WUHU216HW,2013-06-06 01:40:00,
2013-06-05 21:45:00,62.3,50.3,29.99,North,0,0.0,0.0,65,0.00,,,0.00,WUHU216HW,2013-06-06 01:45:00,
2013-06-05 21:50:00,62.1,49.8,29.99,North,0,0.0,0.0,64,0.00,,,0.00,WUHU216HW,2013-06-06 01:50:00,
2013-06-05 21:55:00,61.7,49.1,29.99,North,0,0.0,0.0,63,0.00,,,0.00,WUHU216HW,2013-06-06 01:55:00,
2013-06-05 22:00:00,61.6,49.7,30.00,North,0,0.0,0.0,65,0.00,,,0.00,WUHU216HW,2013-06-06 02:00:00,
2013-06-05 22:05:00,61.2,49.4,29.99,North,0,0.0,0.0,65,0.00,,,0.00,WUHU216HW,2013-06-06 02:05:00,
2013-06-05 22:10:00,61.0,49.2,30.00,North,0,0.0,0.0,65,0.00,,,0.00,WUHU216HW,2013-06-06 02:10:00,
2013-06-05 22:15:00,60.8,49.1,30.00,North,0,0.0,0.0,65,0.00,,,0.00,WUHU216HW,2013-06-06 02:15:00,
2013-06-05 22:20:00,60.8,49.5,30.00,North,0,0.0,0.0,66,0.00,,,0.00,WUHU216HW,2013-06-06 02:20:00,
2013-06-05 22:25:00,60.7,49.3,30.00,North,0,0.0,0.0,66,0.00,,,0.00,WUHU216HW,2013-06-06 02:25:00,
2013-06-05 22:30:00,60.5,49.2,30.00,North,0,0.0,0.0,66,0.00,,,0.00,WUHU216HW,2013-06-06 02:30:00,
2013-06-05 22:35:00,60.3,49.0,30.00,North,0,0.0,0.0,66,0.00,,,0.00,WUHU216HW,2013-06-06 02:35:00,
2013-06-05 22:40:00,60.1,48.8,30.00,North,0,0.0,0.0,66,0.00,,,0.00,WUHU216HW,2013-06-06 02:40:00,
2013-06-05 22:45:00,59.9,49.4,30.00,North,0,0.0,0.0,68,0.00,,,0.00,WUHU216HW,2013-06-06 02:45:00,
2013-06-05 22:50:00,59.8,49.2,30.00,North,0,0.0,0.0,68,0.00,,,0.00,WUHU216HW,2013-06-06 02:50:00,
2013-06-05 22:55:00,59.6,49.1,30.00,North,0,0.0,0.0,68,0.00,,,0.00,WUHU216HW,2013-06-06 02:55:00,
2013-06-05 23:01:00,59.2,49.1,30.00,North,0,0.0,0.0,69,0.00,,,0.00,WUHU216HW,2013-06-06 03:01:00,
2013-06-05 23:06:00,58.9,49.1,30.00,North,0,0.0,0.0,70,0.00,,,0.00,WUHU216HW,2013-06-06 03:06:00,
2013-06-05 23:11:00,58.7,48.5,30.00,North,0,0.0,0.0,69,0.00,,,0.00,WUHU216HW,2013-06-06 03:11:00,
2013-06-05 23:16:00,58.5,48.8,30.00,North,0,0.0,0.0,70,0.00,,,0.00,WUHU216HW,2013-06-06 03:16:00,
2013-06-05 23:21:00,58.3,49.3,30.00,North,0,0.0,0.0,72,0.00,,,0.00,WUHU216HW,2013-06-06 03:21:00,
2013-06-05 23:26:00,58.0,49.0,30.00,North,0,0.0,0.0,72,0.00,,,0.00,WUHU216HW,2013-06-06 03:26:00,
2013-06-05 23:31:00,57.8,49.1,30.00,North,0,0.0,0.0,73,0.00,,,0.00,WUHU216HW,2013-06-06 03:31:00,
2013-06-05 23:36:00,57.6,49.3,30.00,North,0,0.0,0.0,74,0.00,,,0.00,WUHU216HW,2013-06-06 03:36:00,
2013-06-05 23:41:00,57.4,48.8,30.00,North,0,0.0,0.0,73,0.00,,,0.00,WUHU216HW,2013-06-06 03:41:00,
2013-06-05 23:46:00,57.2,49.0,30.00,North,0,0.0,0.0,74,0.00,,,0.00,WUHU216HW,2013-06-06 03:46:00,
2013-06-05 23:51:00,56.9,49.0,30.00,North,0,0.0,0.0,75,0.00,,,0.00,WUHU216HW,2013-06-06 03:51:00,
2013-06-05 23:57:00,56.5,48.6,30.00,North,0,0.0,0.0,75,0.00,,,0.00,WUHU216HW,2013-06-06 03:57:00,